Regional Weather Roundup
Issued by NWS New Orleans/Baton Rouge, LA

Home | Current Version | Previous Version | Graphics & Text | Print | Product List | Glossary On
Versions: 1 2 3 4 5 6 7 8 9 10 11 12 13 14 15 16 17 18 19 20 21 22 23 24 25 26 27 28 29 30 31 32 33 34 35 36 37 38 39 40 41 42 43 44 45 46 47 48 49 50
249
ASUS44 KLIX 261007
RWRLIX
NEW ORLEANS REGIONAL WEATHER ROUNDUP
NATIONAL WEATHER SERVICE NEW ORLEANS LA
500 AM CDT THU MAR 26 2015

NOTE: "FAIR" INDICATES FEW OR NO CLOUDS BELOW 12,000 FEET WITH NO
      SIGNIFICANT WEATHER AND/OR OBSTRUCTIONS TO VISIBILITY.
      SKY/WX - SKY CONDITION AND SIGNIFICANT WEATHER.
      TMP - AIR TEMPERATURE.     DP    - DEWPOINT TEMPERATURE.
      RH  - RELATIVE HUMIDITY.   PRES  - PRESSURE.
      HI  - HEAT INDEX.          WCI   - WIND CHILL INDEX.

*  THESE STATIONS ARE NOT NWS OR FAA STATIONS AND ARE NOT UNDER
   NWS QUALITY CONTROL.

LAZ038-040-048-061>063-065>067-069-261100-
SOUTHEAST LOUISIANA

CITY           SKY/WX    TMP DP  RH WIND       PRES   REMARKS
N.O. AUDUBON     N/A     67  67  98 MISG        N/A
N.O. INTL ARPT CLOUDY    67  63  87 SE3       29.89F
N.O. LAKEFRONT MOCLDY    69  64  84 SE3       29.90S
SLIDELL        CLOUDY    62  60  93 CALM      29.91R
BATON ROUGE    CLOUDY    63  60  90 CALM      29.89S
BOOTHVILLE     CLOUDY    67  65  93 SE6       29.90F
BELLE CHASSE   MOCLDY    67  63  87 SE3       29.89S
BOGALUSA*        N/A     61  58  90 CALM      29.92S
GALLIANO*      CLOUDY    71  68  92 CALM      29.89F
NEW ROADS*     PTSUNNY   60  58  94 CALM      29.89S
GONZALES*      CLOUDY    65  65 100 CALM      29.89S
HAMMOND*       CLOUDY    63  59  88 CALM      29.92R
HOUMA*         CLOUDY    69  68  98 S3        29.89S FOG
PORT FOURCHON* CLOUDY    73  70  88 SE8       29.92S

$$

MSZ070-080>082-261100-
SOUTHERN MISSISSIPPI

CITY           SKY/WX    TMP DP  RH WIND       PRES   REMARKS
MCCOMB         MOCLDY    61  59  93 SE5       29.90S
GULFPORT       PTCLDY    64  62  93 CALM      29.92R
BILOXI         CLEAR     67  65  95 E2        29.92R
PASCAGOULA     FOG       58  58 100 CALM      29.93S VSB 1

$$

COASTAL OBSERVATIONS
LAKE AND NEARSHORE STATIONS

STATION/POSITION TIME  TEMP    WIND        PRES    WAVE
                       AIR SEA DIR/SP/G            HT/PER
                 (UTC) (F)     (DEG/KT/KT) (MB)    (FT/S)
PASCAGOULA       0900   69     140/  4/  7 1012.7
WAVELAND YACHT   0900   70 71  150/  6/  7 1012.5
GRAND ISLE       0900   70 71  140/  5/ 10 1012.1
SOUTHWEST PASS   0900   67 51  140/  8/ 10 1012.6
NEW CANAL        0900   67      CALM  /  1 1012.8
SHELL BEACH      0900   68 72  140/  5/  8 1012.3

OFFSHORE STATIONS

STATION/POSITION TIME  TEMP    WIND        PRES    WAVE
                       AIR SEA DIR/SP/G            HT/PER
                 (UTC) (F)     (DEG/KT/KT) (MB)    (FT/S)
64 S DAUPHIN ISL 0950   73 73  150/  8/ 10 1012.7    2/ 4

$$




USA.gov is the U.S. government's official web portal to all federal, state and local government web resources and services.